Terminal Aerodrome Forecast
Issued by NWS Sioux Falls, SD

Home | Current Version | Previous Version | Graphics & Text | Print | Product List | Glossary On
Versions: 1 2 3 4 5 6 7 8 9 10 11 12 13 14 15 16 17 18 19 20 21
334
FTUS43 KFSD 240942 AAB
TAFHON
TAF AMD
KHON 240942Z 2410/2506 36010KT P6SM SCT006 OVC025
     FM241300 01015G24KT P6SM OVC015
     FM242000 01016G25KT P6SM SCT150=

USA.gov is the U.S. government's official web portal to all federal, state and local government web resources and services.